Theta_e
296 295 294 294 293 292 291 291 290 289 288 289 289 289 290 291 291 290 289 288 288 288 287 287 287 287 286 286 286 285 285 285 286 286 287 286 286 285 285 285 284 284 284 283 283 284 284 283 283 283 282 281 281 282 282 282 281 282 282 282 282 281 281 280 279 279 282 282 281 281 281 280 279 281 279 279 280 280 280 280 280 280 281 281 281
296 296 294 294 293 291 291 291 290 289 287 287 288 289 289 289 290 289 288 288 288 287 287 287 286 286 286 285 285 285 285 285 285 286 285 284 284 285 284 284 284 283 283 282 282 283 283 282 281 281 281 281 281 281 281 280 281 281 281 280 281 281 281 280 279 279 279 281 280 281 280 280 278 281 279 278 278 279 279 279 280 280 280 280 281
297 297 295 294 293 292 290 289 288 288 287 286 287 288 288 288 289 288 288 287 287 287 287 286 286 286 285 285 285 285 285 285 285 285 285 284 283 283 284 284 283 282 282 282 282 282 281 281 280 279 280 280 280 280 281 280 281 280 280 281 280 280 280 280 279 278 278 279 281 279 279 279 278 278 279 279 279 279 278 279 279 280 280 281 280
296 295 294 293 291 289 288 288 288 288 287 287 287 287 287 287 288 287 287 286 286 286 286 286 286 285 285 285 285 285 284 284 284 285 285 284 284 283 283 283 282 282 281 281 281 280 280 279 279 279 279 279 279 280 280 280 280 280 280 280 280 279 280 279 279 279 278 277 279 279 279 278 278 279 279 279 278 278 279 279 280 280 280 281 280
295 294 292 290 288 288 287 286 286 286 286 286 286 286 286 287 287 287 286 286 286 285 285 285 285 285 284 284 284 284 284 284 284 284 284 284 283 283 282 282 282 282 281 281 281 279 279 279 279 279 280 279 280 280 280 280 280 280 280 280 280 280 279 279 279 279 278 277 278 279 279 278 278 278 279 277 278 279 279 279 279 279 279 280 280
294 293 291 289 288 287 287 286 285 284 285 285 285 285 286 286 286 286 286 285 284 284 284 284 284 284 284 285 284 284 284 284 283 283 283 282 282 282 282 282 282 281 281 280 279 279 279 280 280 280 280 280 281 281 280 280 280 280 279 280 280 279 279 279 279 278 278 278 278 277 278 277 277 278 279 278 277 277 278 279 279 279 279 278 278
292 291 291 290 288 287 286 285 286 285 285 285 285 285 285 285 285 285 285 284 283 283 283 283 284 284 284 284 284 283 282 282 281 281 281 281 281 281 281 280 280 280 279 279 278 278 279 280 280 280 280 281 281 281 280 280 280 279 280 279 279 279 278 279 278 278 278 277 278 278 277 278 277 276 278 279 278 278 276 277 277 278 278 277 276
291 290 290 289 288 287 286 285 286 286 286 286 286 285 284 284 284 284 284 283 283 283 283 283 284 284 284 283 283 282 281 280 280 280 280 281 280 280 280 279 278 279 279 278 278 279 280 280 280 280 281 282 282 282 281 280 280 279 280 279 279 278 278 278 278 278 277 277 277 277 277 277 277 278 279 278 277 277 278 277 275 275 276 277 277
290 290 289 289 288 287 286 286 286 287 286 286 285 284 284 284 284 284 284 284 283 283 283 283 283 283 283 282 281 281 280 280 280 280 280 281 281 280 279 279 278 278 278 277 278 279 280 280 279 280 281 282 282 282 282 282 280 279 280 279 279 278 278 278 278 278 277 277 276 277 276 276 277 277 277 277 277 276 277 277 275 276 276 275 276
290 289 288 288 288 288 287 285 285 285 285 285 284 284 283 284 284 283 283 284 284 284 283 283 283 283 282 281 281 280 280 279 281 283 283 281 280 280 279 279 279 278 277 277 278 279 279 279 280 281 281 281 281 281 281 281 281 281 280 280 279 278 278 277 277 277 277 276 276 276 275 275 276 277 277 277 278 277 276 276 274 275 275 274 275
290 289 289 289 288 288 286 285 284 283 285 284 284 283 284 283 283 283 283 284 284 284 283 283 282 282 282 281 280 280 279 279 282 284 284 283 280 280 279 279 278 278 278 278 279 279 279 280 280 280 280 280 280 280 281 281 281 281 281 281 280 279 277 276 276 277 276 276 276 275 275 275 276 277 277 277 277 276 275 275 274 274 273 271 270
290 290 290 289 288 287 286 285 284 284 284 284 283 284 284 284 283 284 284 283 283 283 283 282 282 282 281 281 280 279 279 282 284 285 285 284 282 280 280 280 279 278 278 279 280 280 279 279 279 279 279 280 280 280 280 281 281 281 281 280 280 280 280 278 276 275 275 275 275 275 275 275 276 277 277 277 276 276 276 275 274 273 272 271 271
291 290 290 289 288 287 286 285 285 284 284 284 284 284 284 284 284 283 283 283 283 282 282 281 281 281 281 280 279 279 279 283 284 285 285 285 284 281 280 280 279 279 279 279 280 280 280 280 279 279 279 280 280 280 281 280 281 281 281 280 280 280 280 280 280 278 277 275 275 274 275 276 276 277 278 277 277 275 275 274 273 273 272 271 271
290 290 289 288 288 287 286 285 285 285 284 284 284 284 284 284 284 284 284 283 282 282 282 281 281 281 281 280 280 279 279 282 285 285 285 286 286 283 281 280 280 279 279 279 280 280 280 280 280 279 280 280 280 280 280 281 281 281 280 281 280 281 281 281 280 279 278 277 276 274 276 278 276 278 278 278 276 274 274 273 273 272 271 271 272
291 290 289 288 287 286 285 285 285 285 284 284 283 283 283 283 283 283 283 283 282 282 281 281 281 281 281 281 280 279 279 283 285 285 286 286 286 285 281 280 281 281 281 280 280 280 281 281 281 281 280 280 280 280 280 280 280 280 280 280 281 281 281 281 280 280 279 278 277 277 278 279 279 279 278 278 277 276 275 274 273 273 272 272 272
290 290 289 288 287 287 286 285 285 285 284 283 282 282 283 283 283 283 283 283 283 282 282 282 282 282 282 280 280 279 279 283 284 285 286 287 287 285 283 281 281 281 280 280 280 281 281 282 281 281 281 280 280 281 280 280 279 277 276 278 279 280 280 281 282 282 281 281 280 279 279 280 280 279 278 277 277 277 276 275 274 272 270 269 269
289 289 288 288 287 286 286 285 285 284 284 283 282 283 283 283 283 284 283 283 282 282 282 282 282 282 281 280 279 279 279 282 284 285 286 287 287 286 285 283 281 281 280 281 281 281 281 281 281 281 281 280 281 282 282 280 277 275 274 274 275 275 276 278 279 281 281 281 282 282 282 281 281 280 280 281 279 277 275 272 270 271 269 268 269
289 289 288 288 287 287 286 286 285 284 284 283 283 284 284 284 284 284 283 282 282 283 283 282 282 281 280 279 279 279 279 280 283 285 286 287 286 286 286 284 282 281 280 281 281 281 281 281 281 280 280 280 281 282 282 280 277 275 274 273 272 272 273 275 275 276 279 280 281 281 281 281 281 281 282 282 281 279 275 271 272 271 269 269 267
288 288 289 289 288 287 287 286 285 285 284 284 284 284 283 283 284 283 283 283 283 283 282 281 280 280 280 280 281 280 280 281 283 284 285 286 286 286 285 285 283 282 281 280 280 280 280 280 280 279 279 279 280 281 282 281 278 276 274 273 271 271 272 274 274 274 275 276 277 278 278 279 279 279 279 279 278 276 276 274 273 270 268 268 268
289 289 289 288 288 287 287 286 286 285 285 285 285 284 284 284 283 283 283 283 283 282 281 281 280 280 280 280 281 281 280 281 282 283 284 285 286 285 285 284 283 282 281 281 280 280 280 279 279 280 280 280 280 281 282 283 279 278 276 273 273 273 275 274 274 274 274 275 275 277 277 278 276 274 273 274 274 275 274 274 274 272 269 268 268
289 289 288 288 287 286 287 286 286 286 286 285 285 285 285 284 283 283 282 282 282 281 280 280 280 280 280 280 280 280 281 281 280 283 283 284 285 285 284 284 284 283 282 281 281 280 280 279 279 280 281 281 281 281 282 282 282 279 277 275 274 276 276 275 274 276 274 275 275 275 276 275 273 272 271 272 272 273 273 274 273 272 270 268 267
289 288 287 287 286 286 286 286 286 285 285 285 285 284 285 284 283 283 282 281 280 279 279 279 279 280 280 279 279 279 280 280 279 281 282 284 285 285 284 284 284 283 282 282 281 281 281 281 280 279 281 281 281 282 282 282 282 281 280 280 279 278 276 276 275 275 275 275 274 274 274 274 272 270 270 270 271 272 272 272 273 272 272 271 269
288 287 287 286 285 285 285 285 285 285 284 284 284 283 283 283 282 282 280 279 279 279 278 279 279 279 279 279 278 278 278 278 279 279 281 282 284 285 285 285 285 284 282 281 281 281 282 282 281 280 280 281 282 282 282 282 282 281 282 283 282 281 279 277 276 275 275 275 274 274 274 273 271 270 270 269 269 271 271 272 272 272 271 271 272
286 286 285 285 285 284 284 284 285 285 284 284 284 282 281 281 280 280 280 279 279 279 279 278 278 278 277 278 277 277 277 277 278 279 279 281 283 284 285 285 285 284 283 282 282 283 282 282 281 281 281 281 281 282 282 283 282 283 283 283 283 282 280 278 277 276 275 274 274 273 273 272 271 270 270 270 271 271 271 270 270 270 270 270 270
285 284 284 284 284 284 284 284 284 284 283 283 282 280 280 279 279 280 279 280 279 279 279 278 277 278 278 278 278 277 276 276 276 278 279 279 281 282 283 284 285 285 284 283 284 283 283 283 282 281 281 281 281 282 282 282 283 283 283 283 282 281 280 279 277 276 274 273 273 273 272 272 271 272 272 271 270 269 268 268 268 268 269 269 268
284 284 284 284 283 283 283 283 283 282 282 283 282 281 280 279 280 279 279 279 279 279 279 278 278 278 278 278 278 278 277 276 275 275 277 278 279 280 281 282 283 283 283 284 284 284 283 283 283 282 281 281 281 280 280 280 281 282 282 282 281 281 280 279 278 276 274 274 273 272 272 273 272 271 270 269 268 267 267 266 266 266 266 265 266
283 282 282 282 282 282 281 281 281 280 281 282 282 281 281 281 280 278 279 279 279 279 279 277 277 277 277 278 278 278 276 276 276 275 275 276 277 278 279 279 281 281 281 282 282 282 283 283 283 283 282 282 281 280 280 280 280 280 280 280 280 280 280 279 278 277 275 273 273 273 273 272 269 267 266 266 266 266 267 266 266 267 267 267 265
282 282 281 281 281 281 281 275 278 280 280 281 281 281 280 281 280 278 279 279 279 278 279 278 278 278 278 278 278 277 277 276 276 275 274 274 275 276 277 278 278 279 280 280 281 281 280 280 280 281 281 280 280 279 279 279 278 278 278 278 278 278 279 280 279 277 276 275 274 274 270 268 267 266 266 265 265 265 265 265 265 266 266 265 264
281 280 280 280 280 280 280 279 280 280 280 280 281 280 280 280 280 280 279 281 281 280 279 279 279 279 280 279 278 277 277 276 276 278 276 276 275 275 275 275 276 277 278 279 278 277 277 277 277 277 277 277 277 277 277 277 277 277 277 277 277 277 276 275 274 274 274 273 272 270 269 267 267 266 265 265 265 265 265 264 265 264 265 265 263
279 278 278 279 279 279 279 279 279 279 279 279 278 277 274 279 280 281 279 278 280 280 281 281 280 280 279 280 280 279 279 280 279 278 278 278 278 278 277 277 277 276 276 278 278 276 276 275 275 275 275 276 276 276 276 276 276 275 276 276 275 275 274 273 273 273 273 271 271 269 268 267 266 266 265 265 265 265 265 265 264 264 263 264 263
278 278 278 278 278 278 278 278 278 278 278 278 278 277 277 277 278 279 279 279 279 280 280 280 279 280 279 278 278 279 279 279 279 279 279 279 279 279 279 279 278 278 278 276 275 275 274 274 275 275 275 275 275 275 275 275 275 274 274 274 275 273 273 272 272 272 272 270 270 269 268 267 267 267 266 265 265 265 264 264 264 264 263 263 263
278 278 278 277 276 277 278 277 276 277 277 277 278 278 278 277 277 279 279 278 279 279 280 280 280 280 279 279 277 277 278 279 279 279 279 279 280 280 280 280 280 280 279 279 275 275 275 274 274 275 275 274 275 275 275 274 274 274 274 273 273 273 272 272 272 272 270 269 268 268 268 267 267 267 267 266 265 265 264 264 264 264 264 264 263
278 277 276 275 275 275 275 275 275 276 275 275 276 278 279 279 278 277 278 279 279 279 280 280 281 281 281 280 279 278 278 279 279 279 280 280 280 280 280 280 280 280 280 278 276 276 276 275 274 274 274 274 274 274 274 274 274 274 274 273 272 273 272 272 272 271 269 269 268 267 267 266 266 266 266 266 265 265 265 264 265 264 264 263 263
277 276 275 275 275 275 275 275 276 276 276 276 277 277 278 279 280 278 276 276 276 278 279 280 280 280 281 281 281 281 280 280 280 280 280 280 280 280 280 279 281 281 280 277 277 276 276 276 275 274 274 274 274 274 274 274 274 274 274 273 273 273 272 271 270 269 268 268 268 267 267 266 266 266 266 266 265 265 265 264 264 264 264 263 263
275 271 270 272 276 275 276 276 276 276 275 275 275 275 277 276 277 277 277 276 276 275 276 276 277 278 278 278 279 280 281 281 281 280 280 280 280 280 280 278 277 278 278 278 277 277 276 276 276 275 274 274 274 274 274 274 274 273 273 273 273 273 271 269 269 269 268 268 268 267 267 267 267 266 266 266 265 264 264 264 264 264 263 263 263
273 273 273 273 275 275 275 275 275 275 274 274 274 275 274 274 274 275 275 275 275 275 274 273 270 270 273 274 275 276 277 278 279 280 280 280 281 281 278 277 277 276 276 277 277 277 277 277 276 276 275 275 274 274 274 274 273 273 273 273 272 272 271 269 269 268 268 268 267 267 267 266 266 266 265 265 264 264 264 264 264 263 263 263 263
273 273 273 273 274 274 273 273 273 273 273 271 271 272 272 272 272 272 272 273 272 272 273 269 269 269 270 268 269 272 274 275 276 277 278 279 280 279 278 278 277 277 276 276 276 276 276 276 277 276 276 275 275 275 274 274 274 273 273 273 272 272 271 270 269 268 267 267 267 266 266 266 266 265 265 264 264 264 263 263 263 263 262 262 262
273 273 272 270 271 270 270 270 269 269 270 270 271 271 270 270 270 270 270 270 270 270 269 268 270 271 270 269 267 268 269 272 273 274 276 277 276 276 277 276 276 276 276 276 276 276 275 276 276 276 275 275 275 275 274 274 274 273 273 272 272 271 271 270 269 267 266 267 266 266 265 265 266 265 264 264 264 264 263 263 262 263 262 262 261
270 269 269 269 271 271 270 269 268 269 269 269 270 269 268 268 268 269 269 269 268 268 268 268 269 269 269 267 267 267 268 270 270 271 272 273 274 275 274 274 273 273 272 272 272 272 273 273 272 273 274 275 274 274 274 274 274 273 273 272 271 271 270 269 268 267 266 266 266 266 266 265 265 265 264 263 263 263 263 262 262 262 261 261 261
270 270 270 270 270 270 269 268 269 269 268 268 268 268 268 268 268 268 268 267 267 267 267 267 267 267 265 263 265 267 269 269 269 269 269 269 270 270 271 272 272 271 270 269 269 269 269 269 269 269 269 269 270 271 271 271 271 270 270 270 269 268 268 269 268 267 267 266 266 266 265 264 264 264 263 263 263 263 262 261 261 261 261 261 261
271 270 268 270 269 268 267 268 268 268 268 268 268 268 268 267 267 267 267 267 266 266 266 266 266 264 263 264 268 269 268 268 267 267 267 267 267 267 268 269 269 268 268 268 268 267 267 267 267 267 267 267 267 268 268 268 268 268 268 268 268 268 268 268 267 267 267 265 265 265 264 264 264 263 262 262 263 262 262 262 262 261 261 261 261
269 269 269 268 267 268 268 267 266 264 266 265 267 268 266 266 266 266 266 265 265 265 265 264 264 262 263 267 269 270 268 267 267 266 265 265 265 265 265 265 265 265 266 266 266 266 266 266 266 266 266 266 266 267 267 267 267 267 267 267 267 267 266 266 266 265 265 265 264 264 264 264 263 263 262 263 262 262 261 261 261 261 261 261 260
268 268 267 267 268 268 267 265 264 265 265 265 265 264 264 264 264 265 264 264 264 264 264 263 263 262 263 269 269 270 268 267 265 265 265 263 263 263 262 262 262 261 260 261 263 263 264 265 265 265 265 265 265 265 265 266 266 266 266 266 266 265 265 265 265 264 263 263 263 263 262 262 262 262 262 262 262 261 261 260 260 260 260 260 260
265 264 264 265 264 264 264 264 265 265 265 263 262 262 262 263 263 263 264 263 263 263 264 263 262 263 263 264 264 264 265 264 264 264 262 262 261 261 261 260 259 259 259 260 259 259 261 262 262 262 260 260 260 258 261 263 263 263 264 264 264 263 263 263 264 263 263 263 262 262 262 261 261 261 261 261 261 260 260 260 260 260 260 260 260
263 263 263 263 263 263 262 263 262 262 261 261 262 261 261 262 263 262 262 262 261 262 262 261 261 261 261 261 262 262 261 262 261 261 261 261 260 259 259 258 257 257 258 259 258 256 257 259 259 259 259 260 258 258 259 260 260 261 263 263 262 262 263 262 262 262 262 261 262 262 261 261 260 260 261 261 260 259 259 259 259 259 259 259 259
263 263 262 262 261 261 261 261 260 261 261 262 261 261 260 261 261 261 261 261 261 261 260 260 260 261 261 260 260 260 259 259 259 259 259 259 259 259 258 257 257 256 257 258 256 254 256 257 258 259 258 259 258 258 259 258 258 259 258 260 261 262 262 261 261 260 260 260 261 261 261 260 260 260 259 260 260 260 259 259 259 259 259 259 259
262 262 262 262 261 260 260 259 260 260 260 260 260 260 260 260 260 260 259 260 260 259 260 260 260 260 259 259 259 259 258 259 259 258 257 257 256 257 257 255 255 256 256 256 254 255 254 254 256 256 256 257 257 255 257 258 258 258 258 259 259 259 259 260 259 259 259 259 259 259 260 260 259 259 259 258 259 259 258 258 258 258 258 258 258
261 261 261 260 260 259 259 259 259 258 259 259 259 259 259 259 259 259 259 258 258 258 259 258 259 258 258 258 258 258 258 258 257 257 257 256 256 256 254 253 254 256 255 255 255 255 255 255 254 254 254 255 255 256 257 257 257 257 258 258 258 258 258 257 257 257 258 258 258 258 258 258 259 259 259 258 258 258 258 258 258 258 258 258 258
260 260 260 260 260 259 259 260 259 260 259 258 258 258 258 258 258 259 258 258 259 258 259 258 258 257 257 257 257 257 256 256 256 256 256 256 255 255 253 253 253 253 254 255 255 254 254 254 253 254 254 255 255 255 255 255 256 256 256 257 257 256 256 256 256 257 257 257 258 257 257 257 257 257 257 257 257 257 257 257 258 258 258 258 258
259 259 259 259 259 259 259 259 259 259 258 258 258 258 257 257 257 257 257 257 257 257 257 257 257 257 257 257 256 256 256 256 256 256 256 256 255 255 254 253 252 252 253 254 255 254 254 253 252 252 253 254 254 254 255 255 255 256 256 256 256 257 257 257 257 256 256 257 257 257 257 257 257 257 257 257 256 256 256 257 257 257 257 257 257
257 258 257 257 257 257 257 257 257 257 257 257 258 258 257 257 257 257 256 256 257 257 256 256 256 256 256 257 256 256 256 255 256 256 256 255 255 254 254 253 253 253 253 253 253 254 253 253 254 254 253 254 254 254 255 255 255 255 255 256 256 257 257 257 257 257 257 257 257 257 256 255 255 255 255 256 256 255 255 256 256 256 256 256 256
Wind_Speed
12 11 10 11 11 11 9 9 9 6 8 8 9 9 7 8 8 8 8 8 8 8 7 9 9 8 9 8 8 8 8 8 7 7 6 7 6 6 7 7 8 6 6 6 4 5 6 6 6 5 5 5 4 4 3 3 3 2 2 2 2 2 2 3 4 5 1 3 1 2 1 2 4 3 4 4 5 5 5 6 7 7 6 6 6
13 12 11 10 12 10 10 9 8 8 10 8 8 8 8 8 8 8 9 8 8 7 8 7 8 9 8 8 8 8 8 7 7 6 7 8 7 5 6 7 8 7 7 7 6 4 5 6 5 5 5 4 4 4 4 4 4 3 3 2 2 2 2 2 3 4 5 2 2 1 1 2 4 3 3 5 6 6 6 6 5 6 6 6 5
12 12 12 12 12 11 9 9 8 10 10 8 8 8 8 8 7 9 8 8 7 6 7 8 9 9 9 8 8 8 8 8 7 7 8 9 9 7 6 7 8 8 8 7 7 5 6 5 5 5 4 4 4 3 4 4 4 4 3 2 3 2 2 3 3 4 5 4 2 3 2 2 4 5 5 5 6 6 7 6 5 5 5 6 6
12 11 10 11 8 8 7 7 10 11 10 8 10 9 8 8 8 8 8 8 9 7 8 9 9 10 9 9 9 8 9 8 7 7 8 9 8 9 8 7 6 6 7 7 7 7 6 5 5 6 5 5 5 4 4 4 4 4 4 3 3 3 2 3 4 4 4 4 3 2 3 4 4 4 5 5 6 6 6 6 6 6 6 6 6
11 11 10 10 8 9 9 9 9 10 11 9 10 9 9 9 9 9 9 9 9 9 9 9 10 10 9 10 10 9 9 9 9 8 7 7 8 8 8 7 7 7 6 6 6 6 6 5 6 6 7 6 6 5 5 6 5 4 4 4 3 3 3 3 4 4 4 5 5 3 2 4 4 5 5 6 6 7 7 7 5 5 6 5 6
11 11 10 11 11 11 11 11 12 10 10 10 10 10 10 10 10 9 10 10 10 9 10 9 9 10 10 10 10 10 9 9 8 8 8 7 7 7 8 7 7 6 5 5 5 5 5 6 7 7 7 8 7 6 6 7 6 5 5 4 4 4 4 4 4 4 4 5 5 5 4 4 5 5 5 5 6 7 6 5 5 5 5 5 6
11 11 11 12 12 12 11 11 10 11 10 9 9 9 10 10 11 11 10 9 10 9 9 9 9 11 11 10 10 10 9 7 7 8 8 8 8 8 8 7 7 5 5 5 5 5 5 6 6 7 8 8 7 8 7 7 6 6 6 6 5 5 5 4 4 4 5 5 5 5 5 5 5 6 5 5 7 7 6 6 5 4 4 5 6
11 12 12 13 12 12 10 10 10 11 11 11 11 10 10 10 10 8 9 10 10 10 11 11 9 9 8 8 9 8 7 7 7 8 8 9 8 8 7 7 6 5 6 5 6 6 7 6 6 7 8 8 8 8 8 7 6 7 6 6 6 6 6 5 5 5 4 4 5 5 5 5 5 6 5 5 6 5 4 4 7 6 6 5 6
12 12 11 13 13 11 9 10 10 10 10 11 10 9 10 10 10 10 10 10 8 9 9 9 11 10 9 9 9 7 8 8 7 9 10 9 8 8 8 7 7 7 6 6 6 6 6 7 7 8 9 9 10 7 8 7 7 6 6 7 7 7 6 4 4 4 4 4 5 5 5 6 6 5 5 5 5 5 4 5 7 6 6 7 7
13 12 12 12 10 12 13 8 9 8 10 11 10 10 10 10 10 10 11 11 10 10 10 10 10 11 11 10 9 8 6 6 12 15 10 9 10 7 7 7 7 7 7 7 7 7 8 7 7 10 9 9 9 9 8 9 9 6 7 8 8 6 6 6 5 5 4 5 5 4 5 6 6 6 6 6 5 5 5 5 6 6 6 7 7
13 12 12 11 10 12 11 10 8 10 11 10 9 11 11 10 9 10 10 11 11 10 10 11 10 9 11 11 11 8 4 8 16 17 16 14 10 8 8 8 7 7 7 8 8 9 8 8 7 7 8 9 10 11 12 12 12 12 10 9 9 8 7 7 6 6 6 5 5 5 6 7 7 6 6 5 5 5 4 5 5 6 6 6 7
14 13 12 11 11 13 11 11 11 11 11 10 11 9 10 9 9 10 10 9 9 10 11 10 9 9 8 8 8 8 7 12 18 18 18 18 14 9 8 8 8 7 8 8 8 8 8 8 7 6 8 10 9 9 12 14 14 15 15 13 13 13 10 8 6 6 6 6 6 7 6 8 7 6 6 5 5 4 5 5 5 6 6 6 6
12 12 12 12 12 12 12 12 13 12 11 10 9 7 8 8 8 8 9 8 9 11 10 9 9 8 9 10 9 7 7 14 18 19 19 19 19 11 7 8 7 7 8 9 10 9 8 8 8 7 7 11 9 9 9 10 14 16 14 14 15 16 15 16 13 7 5 6 7 7 8 6 7 7 6 5 4 6 5 5 5 6 7 8 8
13 13 12 12 12 11 10 10 9 11 9 10 5 7 7 8 8 7 6 6 8 7 6 9 9 10 10 9 7 5 7 13 18 19 19 19 19 14 7 9 8 8 10 10 9 10 10 10 9 8 8 9 9 10 9 9 9 10 11 11 11 13 17 17 17 16 12 8 8 8 8 8 8 6 5 5 6 6 6 8 7 7 8 9 10
13 14 12 12 11 10 10 10 10 9 8 10 11 11 12 9 9 8 8 8 8 7 7 7 8 7 8 7 7 8 10 14 17 19 19 19 18 15 6 8 8 10 10 10 9 10 10 10 10 9 9 10 10 12 11 10 8 8 9 10 11 10 11 13 13 12 12 11 11 11 9 9 9 9 7 6 7 7 8 8 7 8 8 9 11
12 11 12 12 12 11 11 10 11 8 8 9 11 12 11 10 10 8 7 7 5 6 6 6 8 8 8 9 10 11 8 15 17 18 18 19 19 11 8 9 10 9 9 9 9 8 9 9 9 10 10 10 12 17 13 9 7 9 9 8 8 9 9 10 12 13 12 11 11 11 10 10 10 7 7 6 6 7 6 5 4 5 7 9 10
13 13 12 12 12 12 12 13 12 10 11 12 12 12 12 10 8 7 8 8 8 8 8 8 8 8 10 9 9 9 7 12 17 18 19 20 14 7 8 8 8 9 10 9 8 7 7 8 9 8 9 9 12 17 17 14 7 10 11 9 7 7 9 8 13 16 16 15 15 15 15 14 13 14 15 15 10 7 5 5 6 5 7 10 9
13 13 13 13 13 13 12 12 12 12 13 13 13 10 6 6 8 8 9 9 10 8 8 7 6 7 10 10 9 8 8 11 18 18 18 17 14 9 9 7 7 7 8 8 6 6 9 9 9 9 8 9 11 17 18 14 8 10 9 8 8 9 10 8 6 9 17 19 20 20 19 18 19 18 18 18 17 12 7 8 7 5 9 10 9
14 14 13 12 13 11 11 12 12 13 14 13 12 12 12 12 9 8 9 6 7 5 6 5 6 7 7 8 10 11 8 9 16 16 17 17 15 9 8 7 7 8 7 7 7 7 8 9 13 11 10 7 11 16 19 16 9 8 9 7 9 11 12 9 9 7 7 9 12 13 14 16 15 13 9 11 11 10 8 6 5 6 8 9 7
12 12 11 10 9 9 10 12 12 13 12 11 10 11 8 8 8 8 8 7 7 6 5 7 9 8 7 8 8 7 7 6 10 17 17 17 18 10 8 8 9 7 7 7 6 6 8 7 9 16 18 16 15 18 19 21 12 9 8 10 12 15 7 7 8 7 8 9 9 10 11 10 4 5 4 5 6 7 6 5 7 8 10 8 7
11 11 10 10 9 12 9 11 13 11 11 11 9 9 7 8 7 8 7 6 6 6 9 7 7 6 6 6 6 6 7 7 8 16 17 18 18 16 9 9 8 7 7 6 8 7 7 7 7 13 19 20 20 20 21 22 20 11 12 11 13 5 3 5 8 13 8 8 8 8 8 6 5 4 4 5 5 6 5 6 6 7 7 7 7
10 10 8 10 11 11 11 10 10 10 9 9 8 6 5 8 7 9 6 7 9 9 8 7 6 6 5 5 4 5 5 7 6 12 16 17 17 20 12 9 7 6 7 8 8 8 9 8 8 12 19 20 21 21 22 21 22 14 12 14 13 12 7 5 5 7 8 7 8 8 8 7 5 4 6 5 5 6 6 6 7 8 8 8 8
9 8 9 11 10 11 10 11 10 8 9 9 11 8 7 8 8 8 9 8 8 8 7 5 5 5 5 4 4 4 4 5 10 8 14 17 17 19 19 12 11 9 8 9 9 9 8 9 8 11 16 19 20 20 19 21 18 16 20 20 19 18 14 9 8 8 8 8 9 10 9 6 6 7 8 6 6 6 6 6 6 8 8 9 11
10 11 10 10 10 10 10 10 9 7 9 8 8 9 8 9 9 6 6 7 6 7 6 5 5 5 6 5 4 5 5 5 8 12 10 16 17 19 19 20 16 9 9 10 9 9 8 8 6 10 15 17 19 20 20 20 16 21 21 21 20 18 13 12 11 11 10 10 10 10 10 7 6 8 9 6 6 6 5 5 5 7 8 8 9
11 11 11 11 10 9 9 8 9 9 9 9 8 8 9 8 7 6 7 6 6 7 6 6 6 6 6 6 5 5 5 5 5 9 14 13 17 18 19 19 19 18 11 9 8 8 8 8 7 11 14 16 19 20 19 21 24 23 23 21 19 12 13 12 10 9 10 10 11 9 8 6 8 8 4 4 4 3 3 3 4 5 5 5 5
12 12 10 9 11 10 11 8 8 7 8 6 7 7 8 8 7 7 7 6 6 6 6 6 6 6 6 5 5 5 5 4 5 4 7 10 11 15 17 17 17 17 16 13 12 12 13 13 13 14 14 14 12 12 12 13 17 21 22 21 13 12 12 12 11 10 9 10 9 7 8 5 5 4 4 4 4 4 4 4 4 5 5 6 6
11 9 10 8 8 8 9 7 7 6 6 6 5 6 6 7 6 7 7 7 6 6 6 6 6 5 6 5 5 4 4 4 4 4 5 5 6 7 9 11 14 14 12 11 11 11 11 11 11 12 12 14 17 15 14 15 14 13 12 12 12 12 9 9 9 10 9 7 6 6 5 3 4 5 4 4 4 3 4 4 4 5 4 4 5
10 9 10 7 7 8 7 10 10 6 6 6 7 6 5 6 7 8 9 9 8 7 7 7 7 7 6 5 4 4 4 4 5 6 6 6 6 5 6 6 6 7 8 7 7 6 5 4 6 8 9 10 10 10 11 10 11 10 10 10 11 9 11 10 8 5 6 4 4 3 3 4 4 4 4 4 4 4 4 4 5 5 4 3 4
10 9 8 6 7 6 6 7 6 6 6 5 3 3 6 7 6 4 1 3 6 7 7 6 5 5 5 5 5 4 4 5 7 8 6 9 7 6 6 6 5 5 7 8 4 3 4 6 6 6 7 9 10 9 8 8 8 9 10 10 9 8 6 6 9 9 8 6 5 3 4 4 4 4 4 4 4 4 4 4 5 4 4 4 6
9 9 6 6 6 6 6 6 5 5 6 6 5 3 5 3 2 3 5 5 3 1 3 3 3 4 4 3 4 4 4 3 5 10 11 12 13 13 10 9 8 7 7 10 7 5 5 5 6 6 6 7 9 9 10 10 8 7 7 9 9 9 6 5 5 6 6 5 3 3 4 4 4 4 5 5 4 4 5 6 4 4 5 6 6
6 6 7 6 8 6 6 6 5 5 5 6 6 6 5 3 2 1 3 6 7 7 5 3 5 5 3 3 3 4 1 5 6 7 9 11 12 13 13 12 12 12 11 6 5 6 6 6 6 5 6 6 8 8 8 8 8 6 7 6 7 5 6 7 5 5 5 4 4 4 4 4 5 5 6 5 5 4 4 5 5 5 5 6 7
8 7 6 6 8 7 4 5 6 5 5 5 5 6 6 5 4 4 5 6 7 8 7 6 6 8 8 5 4 2 5 7 7 8 9 10 11 11 11 12 12 11 11 11 7 6 6 6 5 5 4 6 7 7 7 7 7 8 8 6 6 7 8 10 7 6 3 4 4 4 5 5 5 5 5 5 4 4 5 5 6 6 7 7 9
8 7 6 7 6 8 7 6 6 6 6 7 5 5 6 6 6 5 4 6 5 5 6 7 7 8 8 8 9 6 5 6 9 9 10 10 10 10 11 12 12 12 12 10 9 8 8 8 8 7 7 7 6 6 7 7 7 7 7 7 8 8 7 6 3 4 4 5 4 4 5 4 4 3 4 4 4 5 5 5 5 5 6 7 8
10 10 8 8 8 7 6 6 6 6 5 5 5 5 4 4 4 6 6 5 3 3 5 6 6 8 8 8 8 8 9 10 10 10 10 10 10 10 10 8 11 14 13 9 9 9 8 7 7 8 8 8 7 6 6 7 7 7 7 8 7 6 5 5 5 6 4 6 7 5 5 5 5 5 5 5 5 4 4 4 5 6 7 8 8
6 6 11 10 4 5 5 5 4 4 4 5 4 4 3 2 3 5 5 6 6 6 6 5 5 6 2 3 0 6 9 10 10 10 10 10 10 10 9 7 7 8 10 10 9 9 9 9 7 6 7 8 8 8 8 8 7 7 7 7 7 6 4 5 6 7 5 5 7 7 5 6 6 5 5 5 5 5 5 5 6 6 7 7 8
6 4 5 5 3 3 4 4 4 4 4 4 3 3 4 3 3 2 2 2 3 4 3 2 2 4 4 4 4 2 1 5 8 10 10 11 11 11 8 8 8 8 9 9 9 9 8 7 6 6 5 6 6 7 7 8 8 8 7 6 7 6 6 5 4 5 5 5 6 6 6 5 6 5 4 5 6 6 6 6 5 6 6 6 6
4 4 4 4 3 3 3 3 3 3 4 3 3 3 3 3 2 2 2 2 2 2 2 2 2 2 2 1 2 1 2 1 2 5 7 8 10 9 8 8 7 7 7 8 8 9 9 9 8 7 6 6 6 7 7 7 6 6 7 7 7 7 6 5 5 4 5 6 6 5 7 8 6 6 6 6 5 5 5 5 5 5 6 6 6
4 4 4 4 4 5 4 4 4 6 4 4 3 3 4 3 3 2 3 2 3 3 3 2 2 3 4 3 2 1 0 1 1 3 6 7 6 6 5 4 3 4 5 6 7 8 8 9 8 8 7 6 6 6 6 6 7 7 7 7 7 6 7 5 5 5 5 5 6 6 6 6 6 6 5 6 6 5 5 5 5 6 8 8 8
5 7 8 7 5 5 4 5 5 4 4 3 3 3 3 3 3 3 2 2 2 2 2 2 2 2 2 2 2 1 2 2 3 4 4 4 5 6 5 3 2 3 1 1 2 2 2 2 1 1 2 3 5 6 6 7 6 7 7 6 6 5 5 5 6 6 5 6 5 5 5 4 6 6 5 5 5 6 5 5 5 7 7 7 8
5 5 6 8 4 4 3 3 4 4 3 4 4 3 4 3 3 3 3 3 3 2 2 2 2 2 2 2 2 2 3 2 2 2 2 2 2 1 2 4 2 1 1 1 0 0 0 0 0 0 1 1 0 0 0 1 1 1 1 3 2 3 4 6 6 6 7 5 5 5 4 5 5 4 4 5 5 5 5 5 5 6 8 8 8
5 5 5 5 5 5 4 4 3 3 3 3 3 3 3 3 3 2 2 3 2 2 2 2 1 1 2 3 5 5 2 2 2 2 1 1 1 1 1 0 1 1 1 2 1 1 1 0 0 0 1 1 0 0 0 1 1 2 2 2 4 5 5 6 5 5 6 5 4 4 5 5 6 6 7 6 5 5 6 5 6 7 7 8 8
5 5 5 4 5 4 4 3 2 3 3 3 3 3 3 3 3 2 3 3 2 3 3 2 2 1 2 6 6 8 4 2 2 2 1 1 1 1 0 0 1 0 0 1 1 1 1 1 0 0 0 0 0 1 1 1 1 2 3 4 5 5 5 6 5 5 5 5 5 5 5 5 5 6 6 5 5 5 5 6 6 6 6 7 6
4 4 4 3 4 3 3 3 3 3 3 3 2 3 3 3 3 3 3 2 3 3 3 3 2 2 1 4 4 5 4 3 3 2 2 1 1 1 1 0 0 0 0 0 0 0 0 1 1 1 1 1 1 1 1 2 1 2 2 3 5 5 5 5 4 4 4 4 4 5 5 5 4 4 5 5 5 6 6 6 6 6 6 6 6
4 3 3 3 3 3 2 3 3 2 2 3 4 2 2 2 2 2 3 3 3 2 2 2 3 4 2 1 2 1 2 2 2 2 2 2 1 1 1 0 0 0 0 0 0 0 0 0 1 0 0 0 0 0 1 1 1 1 4 4 4 5 4 3 4 4 4 4 4 4 5 5 5 4 4 5 5 5 6 6 6 6 5 6 6
4 4 4 3 2 3 3 2 3 3 4 3 2 2 2 2 3 3 3 3 2 2 2 3 3 4 3 2 2 2 2 2 1 2 2 2 2 1 1 0 0 1 0 0 0 0 0 0 0 0 1 0 0 0 0 0 1 1 2 4 4 4 4 3 2 1 2 3 4 4 4 4 5 5 6 5 5 5 5 6 6 6 6 6 6
3 3 3 3 3 2 3 3 2 3 3 3 4 3 3 2 2 3 2 2 3 3 3 3 3 2 2 2 2 2 2 1 1 1 1 1 1 1 1 1 0 1 1 1 0 0 0 0 1 1 1 1 0 0 0 0 1 1 1 2 4 5 3 1 0 1 1 3 4 4 4 5 5 3 5 4 5 5 5 6 5 5 5 6 6
3 3 3 3 3 3 2 2 3 3 3 2 3 3 3 2 2 2 2 3 3 2 3 3 3 3 2 2 2 2 2 2 2 2 2 1 1 1 1 1 1 1 1 1 1 1 1 1 1 1 1 1 1 1 1 1 1 1 1 2 2 2 2 1 1 2 2 2 2 3 5 5 5 5 5 5 6 6 5 5 5 5 5 5 5
3 3 3 3 4 4 4 3 4 4 2 3 2 2 2 2 2 2 2 3 3 2 2 2 2 2 2 2 1 2 1 1 1 1 1 1 1 1 0 0 1 1 1 1 1 1 1 1 1 1 1 2 2 2 1 1 1 1 1 2 2 2 2 2 2 2 2 2 2 3 5 5 5 6 5 5 5 5 5 5 5 5 5 5 6
2 3 3 3 3 3 3 4 3 3 3 3 3 3 2 2 2 2 2 2 3 2 3 3 2 2 2 2 1 1 1 1 1 1 1 1 1 1 1 1 1 1 1 2 1 1 1 1 1 1 2 2 2 2 2 2 2 2 2 2 3 4 5 5 4 4 4 3 4 5 5 5 5 6 5 5 5 5 6 5 5 5 5 5 5
2 2 2 3 2 2 1 1 2 2 2 2 3 3 2 2 2 2 2 2 2 2 1 2 2 2 2 2 2 2 2 2 2 2 2 2 2 2 1 2 2 2 2 2 2 1 1 1 1 2 2 2 2 2 2 2 2 3 3 3 6 8 8 9 9 8 5 4 5 5 5 5 5 5 5 5 5 5 6 5 5 5 5 5 6
2 2 2 2 2 2 2 2 2 2 2 2 2 2 3 2 2 2 2 2 3 2 2 2 2 2 2 2 2 2 2 2 1 1 1 2 2 2 2 2 2 2 2 2 2 2 2 2 2 2 2 3 3 3 3 3 3 3 5 8 9 9 9 9 6 7 9 7 4 5 5 5 5 5 5 5 5 5 6 5 5 5 5 5 5
Wind_Direction
179 184 175 184 177 183 175 175 172 153 155 173 182 185 177 175 172 164 152 167 162 167 155 147 146 143 139 139 138 140 141 145 148 147 138 130 122 123 131 129 127 128 135 138 145 157 162 155 152 149 156 166 162 153 143 139 156 180 176 186 180 175 210 242 255 273 247 123 207 242 270 313 301 311 310 311 307 302 296 292 295 300 301 301 308
186 182 179 180 180 177 178 178 169 166 168 170 179 175 173 174 166 155 168 162 162 163 153 138 139 137 134 138 143 144 145 144 146 143 135 130 125 123 136 136 136 136 143 155 164 168 165 156 152 151 164 163 151 151 149 159 178 182 185 191 199 184 207 223 263 265 269 211 214 198 214 244 295 310 312 309 301 300 293 289 282 286 293 297 303
186 184 181 182 183 180 166 164 160 168 169 171 180 172 172 170 161 165 165 156 154 153 146 139 136 138 140 146 147 148 150 147 151 147 145 144 144 145 145 148 146 149 160 166 170 165 165 162 154 153 165 162 160 165 167 179 184 191 186 192 203 199 195 227 246 261 267 272 281 270 271 280 294 306 306 293 290 285 282 279 279 282 284 289 294
182 180 178 180 172 164 149 155 164 171 174 174 176 174 170 167 163 167 160 153 158 149 144 143 143 149 150 154 156 154 153 152 152 153 149 150 148 146 146 146 145 153 163 167 170 173 171 155 163 168 170 171 173 179 188 190 192 194 188 196 201 204 204 206 236 254 274 278 266 250 290 303 298 297 293 285 276 275 276 276 269 268 276 283 293
176 177 174 171 156 163 168 169 172 172 174 174 175 168 168 164 166 167 158 160 159 152 153 157 156 158 160 162 161 160 158 156 155 152 149 147 144 143 147 150 158 168 175 174 173 169 166 170 169 172 176 181 183 189 190 191 196 195 196 192 200 200 193 212 219 237 251 264 277 280 278 280 282 283 277 279 286 282 272 264 264 271 271 282 289
178 173 172 170 177 178 174 174 180 174 170 172 172 169 170 167 166 167 166 162 158 162 162 164 163 161 163 164 163 159 157 158 155 151 147 146 147 149 152 158 163 167 169 161 167 176 173 183 180 178 185 193 194 191 189 193 194 200 196 197 196 198 206 214 217 225 243 259 268 280 277 275 284 277 265 262 282 289 283 272 261 261 268 283 289
175 172 176 181 178 183 176 177 177 179 179 171 167 169 171 170 168 167 166 161 161 162 166 162 166 166 167 163 162 158 153 147 148 149 151 156 157 156 157 158 158 157 159 167 176 187 194 192 187 188 195 201 198 193 189 190 195 200 200 197 198 197 211 212 215 224 237 253 264 267 274 268 260 275 271 266 269 268 278 289 285 275 272 280 296
178 178 177 184 184 182 177 174 177 180 178 174 173 172 167 167 166 156 157 163 167 168 168 170 168 166 158 156 157 152 147 147 152 154 157 161 162 159 156 152 154 160 166 173 183 199 202 202 199 202 206 207 204 199 190 191 191 199 199 193 194 197 210 212 212 222 230 244 255 262 265 269 269 262 259 251 259 260 251 294 297 304 299 296 293
181 179 178 186 188 175 160 172 176 180 173 173 171 166 167 169 165 163 169 171 169 170 168 165 161 163 161 163 157 158 163 171 163 162 161 165 163 159 157 159 162 165 172 183 195 201 205 207 211 211 214 216 212 207 198 190 184 197 199 191 199 198 208 209 211 218 231 235 248 252 256 258 257 261 262 256 261 280 298 294 289 294 301 300 292
183 182 183 186 177 174 178 165 167 163 170 174 172 168 169 170 170 170 174 174 170 170 170 171 173 169 164 167 165 170 180 159 177 170 161 157 166 162 158 163 167 169 173 182 198 205 209 208 215 216 214 213 213 211 208 200 203 204 197 194 194 199 198 200 209 212 217 227 235 239 249 253 252 252 262 264 270 277 282 289 294 305 307 295 291
185 186 187 180 171 173 175 172 165 172 178 171 167 169 172 172 170 170 173 174 173 169 168 173 177 174 171 168 173 179 163 171 178 178 175 165 160 162 164 170 169 171 177 185 195 202 206 209 213 205 212 224 224 219 218 217 215 217 217 210 202 194 185 195 211 205 212 225 227 231 241 252 253 256 256 262 263 266 278 290 293 301 304 311 305
185 186 181 171 169 172 173 168 172 177 174 174 170 169 169 166 169 171 172 171 173 167 177 181 175 172 170 171 176 177 176 180 180 181 179 177 179 171 170 167 171 183 186 195 203 197 198 199 204 196 207 211 209 210 217 220 220 220 221 221 221 221 212 197 192 204 207 216 228 227 229 242 251 248 252 255 262 269 275 283 285 290 292 289 290
182 184 182 177 174 175 174 173 177 176 178 167 171 157 161 160 165 167 174 173 164 171 182 169 173 175 177 181 186 181 177 181 182 181 182 184 186 178 178 175 173 185 187 198 204 202 196 195 200 204 206 196 201 210 209 213 218 221 221 224 228 227 226 224 222 215 202 217 229 235 228 244 252 250 245 252 264 268 276 274 275 280 280 281 284
184 184 182 176 173 172 169 172 172 177 173 178 154 156 153 166 167 171 163 160 171 175 171 173 177 183 186 187 184 163 179 189 188 186 188 189 189 185 180 181 191 188 197 201 203 204 199 198 201 201 198 189 204 206 209 210 206 210 216 220 226 225 226 226 223 222 221 221 223 233 236 230 245 248 247 237 242 260 272 272 272 270 269 272 285
181 183 179 176 172 171 163 166 174 171 172 177 175 176 173 171 169 170 171 173 174 172 169 173 182 177 183 184 178 187 203 196 194 193 193 192 191 189 181 192 202 210 211 208 205 205 206 206 208 207 196 196 200 198 201 205 202 203 208 216 224 227 222 221 220 218 218 222 226 234 239 238 243 244 244 244 250 261 264 260 263 268 276 285 282
180 174 171 173 174 172 162 164 174 162 159 165 173 181 182 175 171 170 166 171 169 164 175 174 175 179 181 183 192 201 197 195 200 199 197 197 194 195 196 203 209 212 216 215 213 214 214 212 211 213 208 203 197 193 197 195 196 204 208 216 224 228 230 226 224 222 222 222 224 225 229 232 232 234 239 242 252 250 247 252 251 260 278 281 282
183 179 177 173 171 170 169 173 178 169 168 171 178 182 181 176 169 162 162 168 169 174 182 180 182 178 184 189 195 200 195 196 200 203 203 202 196 202 206 208 210 213 222 219 218 216 216 217 219 219 215 214 195 193 196 195 197 201 198 213 221 232 238 231 231 233 234 237 238 235 235 235 235 239 243 243 235 215 216 235 245 261 269 281 282
182 177 180 173 170 171 168 173 173 172 173 180 182 181 170 161 167 163 166 170 183 180 174 175 177 181 186 190 192 193 201 198 202 207 208 207 204 206 213 208 206 214 224 220 212 217 222 216 223 227 225 226 192 199 203 200 202 195 199 211 217 230 238 226 230 229 234 239 241 241 243 244 247 248 246 246 232 220 227 250 273 277 271 276 278
181 178 179 171 172 162 166 173 174 175 179 184 181 177 177 180 172 170 182 175 177 155 169 165 171 183 189 193 193 200 206 198 200 207 209 210 208 213 219 218 213 220 217 221 217 220 226 210 211 220 228 225 201 207 210 206 210 196 202 200 224 231 234 206 218 215 214 222 234 234 240 240 241 244 242 220 206 217 233 247 266 248 263 271 269
176 171 167 159 151 159 168 174 177 179 181 176 176 179 168 160 164 164 173 169 168 168 160 171 179 187 186 192 192 194 193 191 190 200 205 209 209 210 219 218 220 210 213 220 216 222 222 224 208 214 223 226 224 221 217 213 210 207 197 209 224 236 225 198 208 206 218 217 225 223 228 230 187 152 176 191 210 210 223 242 251 254 260 261 260
158 156 154 155 167 173 174 178 177 179 177 175 171 169 159 159 151 160 161 164 162 158 175 180 184 186 183 187 186 194 193 192 190 201 208 210 210 208 220 219 218 215 218 216 224 226 224 219 221 207 216 224 227 225 224 221 220 217 217 216 219 215 138 193 210 214 217 220 223 222 225 207 174 188 190 207 212 210 216 228 232 234 233 243 250
153 160 158 164 171 174 175 177 176 173 169 162 154 156 152 157 158 158 159 162 169 173 172 178 177 183 181 181 188 194 186 188 190 203 209 211 210 211 217 222 201 210 219 230 223 231 228 220 222 202 207 219 225 226 227 227 229 231 231 227 230 224 228 223 206 207 220 220 222 224 220 205 184 187 218 217 213 208 211 221 230 235 234 231 242
152 151 156 168 169 171 171 171 170 166 164 163 162 153 150 151 154 157 161 163 168 169 165 165 170 184 181 186 189 186 182 192 200 201 211 214 217 218 221 224 194 207 220 231 226 229 231 226 223 183 205 218 227 230 233 232 234 236 241 244 241 236 234 235 229 221 221 222 229 231 226 207 194 211 219 213 209 207 213 221 228 235 238 238 254
151 158 164 167 166 169 169 168 165 158 162 155 155 142 150 143 135 156 149 155 162 168 177 171 181 180 186 192 185 187 189 196 206 208 209 216 221 223 226 228 222 209 216 233 238 240 242 236 211 180 210 219 226 231 234 232 235 238 239 241 243 241 236 230 227 229 229 229 224 220 221 208 192 212 222 204 204 190 199 211 226 234 238 241 241
157 162 165 165 163 160 158 161 158 159 159 154 144 147 150 151 154 159 154 165 166 173 173 169 182 187 190 196 190 183 186 194 199 207 210 217 223 227 230 231 233 231 230 238 239 244 245 233 193 209 218 221 225 230 234 238 240 242 242 243 242 241 239 234 227 220 217 217 222 221 219 197 200 214 177 163 144 133 166 197 216 231 239 251 258
161 163 162 159 161 151 154 147 148 138 144 157 150 156 150 159 158 155 165 173 173 176 174 175 185 188 192 194 193 184 173 184 199 198 207 220 229 234 236 238 239 240 245 252 247 239 235 237 239 231 222 225 225 233 240 243 244 245 247 248 245 244 242 239 236 222 221 221 215 214 226 207 181 157 145 128 165 194 173 196 205 224 218 233 244
157 154 156 145 136 145 144 151 146 146 148 152 155 152 156 161 154 155 169 171 175 180 176 173 179 184 193 197 187 178 181 192 195 190 196 208 217 220 228 238 241 245 249 249 256 259 257 252 249 246 247 244 238 233 232 241 241 241 239 237 238 243 242 234 230 233 233 228 227 220 207 164 105 117 164 170 191 189 180 197 221 239 228 235 242
152 146 140 142 147 154 148 149 147 150 160 157 157 158 160 165 163 170 176 177 174 181 178 180 185 185 191 185 178 184 194 196 196 194 194 198 204 206 210 215 217 220 231 239 242 249 257 264 259 258 256 255 248 241 236 231 229 227 227 227 231 230 237 245 255 254 246 216 225 207 115 127 161 167 154 174 195 190 174 190 214 237 232 229 246
149 144 147 141 145 148 145 148 157 149 148 151 142 148 162 170 175 181 186 171 174 170 175 185 186 186 176 176 171 188 196 205 214 195 185 186 188 192 200 208 213 221 228 236 256 276 266 256 250 244 240 246 247 240 226 217 218 220 220 228 233 235 231 233 239 243 244 238 226 172 181 152 171 155 168 180 196 190 175 194 217 222 242 227 246
135 138 144 145 139 145 143 151 141 138 145 156 137 93 25 34 38 164 183 203 217 309 159 174 169 170 181 194 183 187 199 203 144 183 204 209 213 214 214 209 204 213 226 238 242 252 248 244 239 233 232 234 241 238 238 235 225 214 222 220 224 228 211 209 219 230 228 214 205 179 183 170 179 174 185 196 197 189 192 202 211 206 221 237 243
133 138 146 157 158 144 140 144 150 150 151 146 153 147 141 144 177 83 102 160 186 196 197 140 131 167 173 183 195 215 151 114 158 189 199 210 214 219 224 227 228 228 230 231 237 234 237 239 239 230 232 232 245 244 244 241 232 211 223 220 220 198 209 215 209 225 225 192 205 189 184 179 198 192 197 199 193 192 175 206 223 223 224 233 248
148 159 153 140 147 153 135 134 137 145 151 155 157 157 154 147 143 168 163 163 180 193 199 196 184 181 194 195 158 185 213 214 208 204 206 210 216 220 224 226 229 228 229 222 233 239 238 239 240 237 239 248 248 247 247 248 247 239 239 224 220 218 219 229 217 213 193 187 200 197 197 198 201 204 199 199 189 196 189 195 209 228 240 244 246
136 122 132 137 145 146 147 146 156 155 154 159 164 165 163 161 157 152 162 170 178 186 194 201 206 207 200 198 191 186 181 195 209 214 215 215 216 219 221 226 226 227 224 227 232 239 239 237 242 247 250 248 249 251 248 246 247 244 230 224 232 224 210 213 187 202 190 204 203 203 196 198 204 208 208 201 197 213 203 205 210 217 238 243 249
159 156 153 156 146 154 156 159 157 160 157 157 160 164 171 170 156 143 144 149 161 193 204 207 216 214 213 210 214 212 208 205 205 211 214 218 220 223 227 233 235 231 225 227 231 237 238 232 223 224 227 236 240 245 245 242 240 234 231 232 231 228 208 175 188 209 192 214 222 216 196 208 206 213 219 206 207 211 211 211 210 220 238 243 252
119 132 149 154 145 145 147 148 144 141 144 151 155 159 160 147 138 155 166 165 168 166 167 154 98 89 146 190 179 221 220 219 218 217 217 218 219 220 224 230 228 229 226 229 231 236 238 241 239 223 219 228 234 237 237 238 230 228 230 229 227 222 188 173 196 207 198 201 220 225 213 213 209 212 217 217 207 209 215 212 216 217 229 241 248
128 130 139 147 121 122 131 138 140 143 149 146 134 130 121 137 151 162 157 158 151 145 143 126 91 25 50 53 43 54 175 220 222 223 223 223 223 219 221 225 224 221 220 225 230 235 239 237 231 231 229 233 234 239 241 239 236 234 231 227 226 221 204 185 194 195 196 201 217 216 222 216 215 210 213 220 217 220 221 216 215 219 221 233 240
132 126 136 140 135 130 118 112 119 121 106 110 121 120 133 136 134 134 141 147 137 126 119 120 128 127 96 67 26 77 65 116 215 212 221 223 225 225 230 230 231 228 218 218 223 234 240 246 246 242 226 229 239 244 239 241 238 229 233 233 231 226 223 201 193 179 191 214 216 205 213 229 213 203 203 216 219 214 216 217 222 222 226 229 237
127 130 121 115 112 110 116 121 110 111 118 127 131 133 131 137 141 144 140 134 135 134 141 155 180 174 177 159 66 94 64 90 152 234 226 220 221 223 224 228 233 240 233 227 222 222 230 237 235 234 227 226 228 235 238 240 239 239 234 233 232 231 223 198 188 189 194 205 209 209 204 211 218 217 206 214 219 214 211 210 213 236 243 234 231
89 102 112 120 122 130 127 121 127 129 125 128 135 137 134 137 137 138 131 127 135 144 151 156 176 178 160 118 146 146 152 180 192 199 198 209 216 220 225 226 234 246 350 347 335 299 266 260 315 318 250 232 230 232 234 239 237 237 236 232 228 224 213 213 213 213 210 216 216 213 207 208 216 222 208 210 219 218 219 205 208 224 234 234 235
123 126 131 127 107 113 113 118 125 124 136 134 139 138 135 141 146 140 135 138 155 164 171 171 184 174 124 144 155 173 186 187 179 178 174 191 194 194 218 226 212 172 162 133 90 259 3 45 29 356 9 17 346 275 270 217 216 206 202 213 199 206 214 226 224 217 222 214 213 214 204 208 209 202 198 210 220 220 216 216 217 217 234 240 247
112 110 117 117 113 112 115 127 132 135 138 135 135 142 138 129 124 129 143 155 156 161 166 176 159 113 143 177 184 181 170 177 164 163 170 165 148 158 179 162 149 142 133 143 143 112 96 82 49 50 50 60 29 87 230 208 200 208 202 218 227 230 231 229 225 227 230 225 220 220 226 223 224 224 228 220 214 228 236 237 240 240 233 234 239
117 120 122 125 134 127 125 127 120 130 123 121 134 134 128 133 141 154 156 160 160 161 158 156 146 149 205 200 202 195 184 174 153 149 125 121 133 127 95 81 57 77 109 116 125 145 142 158 206 225 249 263 239 249 227 225 221 218 218 223 227 227 224 230 228 229 228 224 221 221 227 223 219 220 226 224 226 219 221 227 236 234 227 228 225
107 103 107 120 131 143 136 130 133 131 132 128 114 115 126 131 142 151 152 163 159 161 154 151 144 151 206 199 170 165 153 165 145 151 135 139 121 118 122 120 90 54 33 37 31 31 196 240 228 231 241 304 321 296 264 263 253 243 237 237 236 233 234 235 229 225 224 226 224 226 227 224 216 215 220 219 218 218 224 225 226 228 225 225 229
110 109 107 101 98 87 97 122 126 110 97 102 109 114 126 130 140 153 159 156 157 154 152 149 148 159 161 124 111 126 150 139 156 154 138 136 148 150 143 129 127 152 169 143 71 28 283 247 249 224 89 248 318 344 299 294 284 261 247 242 241 241 238 229 230 229 231 232 235 229 222 222 223 221 223 224 219 218 223 222 225 225 226 228 225
109 118 117 112 108 105 104 89 91 101 113 118 119 126 145 159 159 164 155 151 145 148 150 149 154 160 163 164 162 154 143 144 136 128 147 152 154 161 151 157 191 217 221 221 115 48 259 249 283 270 264 224 152 234 252 261 261 260 246 240 240 242 243 231 224 227 224 227 241 235 233 228 230 234 237 235 226 223 228 227 226 224 223 227 225
106 106 103 101 103 100 107 110 111 115 136 140 145 153 163 160 158 151 150 144 150 155 154 160 163 163 160 156 147 141 147 142 152 149 151 155 165 166 172 184 183 218 220 220 186 206 236 248 243 250 244 252 224 245 240 243 235 234 245 248 243 248 258 276 278 246 238 231 240 243 244 246 241 230 227 232 237 231 233 235 232 225 225 226 228
92 97 101 110 114 116 113 115 126 135 138 148 153 154 159 155 142 137 139 156 154 152 158 164 161 165 156 155 158 158 151 168 170 169 171 165 165 173 178 184 199 221 217 214 217 217 206 228 236 234 248 258 260 249 261 260 252 240 229 238 243 253 263 258 242 237 243 230 227 240 245 248 245 248 234 228 237 235 231 230 229 227 227 232 234
96 102 108 114 118 123 133 138 141 152 144 155 155 147 132 136 138 148 147 152 162 160 151 149 151 145 147 158 157 158 166 164 164 165 160 178 193 198 183 198 218 223 217 236 228 230 232 231 222 230 238 236 238 246 241 246 252 249 246 243 238 241 242 236 248 239 241 235 219 231 239 241 245 245 244 231 224 228 224 231 229 231 227 228 233
103 109 124 132 131 130 144 149 153 160 156 148 138 145 140 140 148 144 152 158 159 161 161 157 161 155 170 165 160 162 161 163 178 187 194 203 196 202 195 213 224 233 229 233 224 214 227 239 241 245 242 252 244 242 249 244 249 249 243 246 238 232 232 224 233 237 217 224 231 230 232 234 237 240 240 236 232 231 235 236 232 232 231 230 230
92 96 99 108 114 118 111 124 128 132 134 144 140 138 139 142 148 158 157 155 151 155 162 159 164 175 173 174 177 179 179 192 194 202 203 203 203 198 202 201 205 219 224 226 232 220 224 220 218 235 238 240 240 238 240 237 237 242 240 238 242 242 240 235 232 227 215 225 220 221 218 224 226 228 231 228 227 227 229 232 229 228 231 233 234
77 82 80 88 99 115 132 139 137 137 141 145 147 146 152 158 156 156 158 165 179 177 171 182 175 173 188 184 176 184 191 203 209 209 220 222 214 209 210 208 215 216 222 216 221 218 216 213 223 217 220 224 226 227 228 228 225 225 234 243 242 239 236 234 232 227 220 221 222 220 220 218 216 219 223 224 224 223 225 227 228 228 232 234 235